Regional Weather Roundup
Issued by NWS

Home | Current Version | Previous Version | Graphics & Text | Print | Product List | Glossary On
Versions: 1 2 3 4 5 6 7 8 9 10 11 12 13 14 15 16 17 18 19 20 21 22 23 24 25 26 27 28 29 30 31 32 33 34 35 36 37 38 39 40 41 42 43 44 45 46 47 48 49 50
818
ASUS44 KMEG 190510
RWRTN
TENNESSEE HOURLY STATE WEATHER ROUNDUP
NATIONAL WEATHER SERVICE MEMPHIS TN
1200 AM CDT SAT AUG 19 2017

TNZ002-004-019-021-049-052-054-088>092-190600-
WEST TENNESSEE

CITY           SKY/WX    TMP DP  RH WIND       PRES   REMARKS
MEMPHIS INTL   FAIR      79  70  74 S3        29.97F
NWS MEMPHIS      N/A     73 N/A N/A MISG        N/A
JACKSON        FAIR      69  69 100 SW3       29.98F
DYERSBURG      FAIR      72  69  90 CALM      29.99R
SOMERVILLE     CLEAR     72  70  94 CALM      29.97F
COVINGTON      CLEAR     70  68  94 CALM      29.97F
UNION CITY     CLEAR     68  66  94 CALM      29.97S
BOLIVAR        CLEAR     70  68  94 CALM      29.98F
PARIS          CLEAR     73  68  83 SW5       29.98R
HUNTINGDON     MOCLDY    70  68  94 CALM      29.98S
LEXINGTON      CLEAR     68  68 100 CALM      29.98S
SELMER         CLEAR     66  64  94 CALM      29.99S
SAVANNAH       CLOUDY    68  66  94 CALM      29.98F
$$

TNZ008-025-027-028-033-062-065-066-190600-
NORTH MIDDLE TENNESSEE

CITY           SKY/WX    TMP DP  RH WIND       PRES   REMARKS
NASHVILLE      FAIR      72  67  84 S3        30.00S
PORTLAND       CLEAR     72  66  83 CALM      29.98S
CLARKSVILLE    FAIR      68  65  90 CALM      29.98F
SMYRNA         FAIR      69  67  93 SE3       30.00S
COOKEVILLE       N/A     64  64 100 CALM      30.00F FOG
GALLATIN       CLEAR     68  66  94 CALM      30.01S
CROSSVILLE     FAIR      64  63  96 CALM      30.05F
$$

TNZ061-075-076-078-094-096-097-190600-
SOUTH MIDDLE TENNESSEE

CITY           SKY/WX    TMP DP  RH WIND       PRES   REMARKS
FAYETTEVILLE   CLEAR     70  68  94 CALM      30.00F
TULLAHOMA      CLEAR     66  64  94 CALM      30.03S
WINCHESTER     CLEAR     68  66  94 CALM      30.02F
MCMINNVILLE    MOCLDY    68  68 100 CALM      30.02S VSB 1/2
COLUMBIA       CLEAR     68  68 100 CALM      29.98S
SHELBYVILLE    CLEAR     68  66  94 CALM      30.00F
$$

TNZ017-018-042-046-047-190600-
NORTHEAST TENNESSEE

CITY           SKY/WX    TMP DP  RH WIND       PRES   REMARKS
TRI CITIES     FAIR      67  67 100 CALM      30.03R
ELIZABETHTON   FOG       68  68 100 CALM      30.04S VSB 1/2
$$

TNZ012-013-036-069-073-074-190600-
CENTRAL EAST TENNESSEE

CITY           SKY/WX    TMP DP  RH WIND       PRES   REMARKS
KNOXVILLE      FAIR      72  65  78 CALM      30.01R
OAK RIDGE      FAIR      69  66  90 CALM      30.02R
DOWNTOWN KNOXV   N/A     68  68 100 CALM      30.00R
GATLINBURG     MOCLDY    70  64  83 CALM      30.01S
MORRISTOWN     CLOUDY    70  66  88 CALM      30.02R
JACKSBORO      CLEAR     66  66 100 CALM      30.05S
$$

TNZ083-085-099-190600-
SOUTHEAST TENNESSEE

CITY           SKY/WX    TMP DP  RH WIND       PRES   REMARKS
CHATTANOOGA    FAIR      74  68  81 CALM      30.00S
DAYTON         MOCLDY    68  68 100 CALM      29.99S
$$

SKY/WX REPORTED AS FAIR MEANS FEW OR NO CLOUDS BELOW
12 THOUSAND FEET.





USA.gov is the U.S. government's official web portal to all federal, state and local government web resources and services.